Change the Weather History Date:

Friday, October 19, 2012

  Actual Average Record
Temperature  
Mean Temperature 64 °F -  
Max Temperature 78 °F 74 °F 91 °F (2004)
Min Temperature 50 °F 54 °F 42 °F (2013)
Degree Days  
Heating Degree Days 1    
Growing Degree Days 14 (Base 50)    
Moisture  
Dew Point 33 °F    
Average Humidity 36    
Maximum Humidity 63    
Minimum Humidity 16    
Precipitation  
Precipitation 0.00 in - - ()
Sea Level Pressure  
Sea Level Pressure 29.96 in    
Wind  
Wind Speed 7 mph (West)    
Max Wind Speed 15 mph    
Max Gust Speed 20 mph    
Visibility 10 miles    
Events      
Averages and records for this station are not official NWS values.
T = Trace of Precipitation, MM = Missing Value Source: NWS Daily Summary

Daily Weather History Graph

Daily Weather History Graph

Search for Another Location

Airport or City:

Trip Planner

Search our weather history database for the weather conditions in past years. The results will help you decide how hot, cold, wet, or windy it might be!

Date:

Astronomy

Oct. 19, 2012 Rise Set
Actual Time 7:34 AM CDT 6:49 PM CDT
Civil Twilight 7:09 AM CDT 7:14 PM CDT
Nautical Twilight 6:41 AM CDT 7:42 PM CDT
Astronomical Twilight 6:12 AM CDT 8:11 PM CDT
Moon 12:07 PM CDT (10/19) 10:39 PM CDT (10/19)
Length of Visible Light 12h 04m
Length of Day
11h 14m
Waxing Crescent, 24% of the Moon is Illuminated
Oct 19
Waxing Crescent
Oct 21
First Quarter
Oct 29
Full
Nov 6
Last Quarter
Nov 13
New

Hourly Weather History & Observations

Time (CDT) Temp. Dew Point Humidity Pressure Visibility Wind Dir Wind Speed Gust Speed Precip Events Conditions
12:53 AM 51.1 °F 37.9 °F 61% 29.97 in 10.0 mi WSW 4.6 mph - N/A   Clear
1:53 AM 53.1 °F 36.0 °F 52% 29.96 in 10.0 mi WSW 5.8 mph - N/A   Clear
2:53 AM 53.1 °F 35.1 °F 50% 29.96 in 10.0 mi WSW 6.9 mph - N/A   Clear
3:53 AM 54.0 °F 32.0 °F 43% 29.95 in 10.0 mi WSW 6.9 mph - N/A   Clear
4:53 AM 57.0 °F 30.0 °F 36% 29.96 in 10.0 mi WSW 9.2 mph - N/A   Clear
5:53 AM 55.9 °F 34.0 °F 44% 29.97 in 10.0 mi WSW 9.2 mph - N/A   Clear
6:53 AM 50.0 °F 37.9 °F 63% 30.00 in 10.0 mi NW 6.9 mph - N/A   Clear
7:53 AM 52.0 °F 36.0 °F 54% 30.01 in 10.0 mi West 6.9 mph - N/A   Clear
8:53 AM 57.9 °F 36.0 °F 44% 30.02 in 10.0 mi West 6.9 mph - N/A   Clear
9:53 AM 63.0 °F 34.0 °F 34% 30.04 in 10.0 mi WNW 9.2 mph - N/A   Clear
10:53 AM 66.9 °F 35.1 °F 31% 30.04 in 10.0 mi WNW 9.2 mph - N/A   Clear
11:53 AM 71.1 °F 30.0 °F 22% 30.03 in 10.0 mi WNW 12.7 mph - N/A   Clear
12:53 PM 73.9 °F 27.0 °F 18% 30.01 in 10.0 mi WNW 15.0 mph 19.6 mph N/A   Clear
1:53 PM 75.0 °F 27.0 °F 17% 29.97 in 10.0 mi WNW 15.0 mph - N/A   Clear
2:53 PM 75.9 °F 28.0 °F 17% 29.94 in 10.0 mi NW 10.4 mph 18.4 mph N/A   Clear
3:53 PM 78.1 °F 28.0 °F 16% 29.92 in 10.0 mi NW 10.4 mph - N/A   Clear
4:53 PM 77.0 °F 27.0 °F 16% 29.90 in 10.0 mi West 6.9 mph - N/A   Clear
5:53 PM 75.9 °F 28.9 °F 18% 29.89 in 10.0 mi West 5.8 mph - N/A   Clear
6:53 PM 66.9 °F 34.0 °F 30% 29.89 in 10.0 mi Calm Calm - N/A   Clear
7:53 PM 61.0 °F 35.1 °F 38% 29.90 in 10.0 mi Calm Calm - N/A   Clear
8:53 PM 59.0 °F 41.0 °F 51% 29.90 in 10.0 mi Calm Calm - N/A   Clear
9:53 PM 59.0 °F 37.9 °F 46% 29.90 in 10.0 mi South 3.5 mph - N/A   Clear
10:53 PM 63.0 °F 34.0 °F 34% 29.90 in 10.0 mi South 4.6 mph - N/A   Clear
11:53 PM 62.1 °F 34.0 °F 35% 29.91 in 10.0 mi South 3.5 mph - N/A   Clear